Вернуться в каталог

STARLINK-32311

АктивенСвязьVLEO
NORAD 62114·PAYLOAD·🇺🇸 United States

Запущен Nov 27, 2024 с Cape Canaveral Space Force Station

Loading…

Ближайшие Пролёты (ближайшие 24 часа)

TLE

СвежийSource: CelesTrak SupGP

Эпоха: Sep 14, 2026, 22:35 UTC

1 62114C 24222A   26257.94145833 -.00094905  00000+0 -34463-2 0  2572
2 62114  43.0002 132.4111 0001583 279.2652 155.7445 15.27540634    17

Отслеживайте STARLINK-32311 в реальном времени с AllMySat

Download on the App Store